Regional Weather Roundup
Issued by NWS

Home | Current Version | Previous Version | Text Only | Print | Product List | Glossary Off
Versions: 1 2 3 4 5 6 7 8 9 10 11 12 13 14 15 16 17 18 19 20 21 22 23 24 25 26 27 28 29 30 31 32 33 34 35 36 37 38 39 40 41 42 43 44 45 46 47 48 49 50

000
ASUS43 KLOT 282300
RWRIL

ILLINOIS REGIONAL WEATHER ROUNDUP
NATIONAL WEATHER SERVICE CHICAGO/ROMEOVILLE IL
600 PM CDT MON JUL 28 2014

NOTE: "FAIR" INDICATES FEW OR NO CLOUDS BELOW 12,000 FEET WITH NO
SIGNIFICANT WEATHER AND/OR OBSTRUCTIONS TO VISIBILITY.

* THESE STATIONS ARE NOT UNDER NWS QUALITY CONTROL. THEY ALSO MAY NOT
  REPORT WEATHER SUCH AS PRECIPITATION OR FOG.

ILZ001-002-007-009-015-016-024-290000-
NORTHWEST ILLINOIS

CITY           SKY/WX    TMP DP  RH WIND       PRES   REMARKS
MOLINE         MOSUNNY   73  50  44 NW7       30.12F
STERLING*      PTSUNNY   72  52  49 N3        30.12F
$$

ILZ003-004-008-010-011-017-018-290000-
NORTH CENTRAL ILLINOIS

CITY           SKY/WX    TMP DP  RH WIND       PRES   REMARKS
ROCKFORD       MOSUNNY   73  49  42 NW8       30.11F
FREEPORT*      PTSUNNY   69  51  52 NW8       30.14S
$$

ILZ005-006-012>014-019>023-290000-
NORTHEAST ILLINOIS

CITY           SKY/WX    TMP DP  RH WIND       PRES   REMARKS
CHICAGO-OHARE  MOSUNNY   71  48  43 NE6       30.07F
CHICAGO-MIDWAY MOSUNNY   71  50  47 NE10      30.07F
AURORA         CLOUDY    70  50  49 N8        30.10F
WAUKEGAN       SUNNY     64  50  60 E6        30.07F
DUPAGE AIRPORT PTSUNNY   71  50  47 NW12      30.08F
WHEELING       SUNNY     68  50  52 NE5       30.09F
NORTHERLY ISL    N/A     64  49  57 N10         N/A
$$

LMZ740>746-290000-
SOUTHERN LAKE MICHIGAN

STATION/POSITION SKY/WX   TEMP    WIND        PRES    VSBY  WAVE
                          AIR SEA DIR/SP/G                  HT/PER
                          (F)     (DEG/KT/KT) (MB)    (MI)  (FT/S)
SOUTHERN BUOY              59 60  340/ 17/ 19 1018.3R         6/ 7
WAUKEGAN HARBOR            61      30/  7/  9   N/A
HARRISON CRIB              61     360/ 14/ 16   N/A
BURNHAM HARBOR             64     350/  5/ 14   N/A
CALUMET HARBOR             63     350/  9/ 12 1017.8F
MICHIGAN CITY              63     340/ 25/ 29   N/A
MICHIGAN CITY 6N           63 67  350/ 19/ 23   N/A           8/ 7
ST. JOSEPH                 61 66  350/ 17/ 25   N/A           9/ 7
$$

ILZ025>027-034>036-040-047-049-050-058-095>099-290000-
WEST-CENTRAL ILLINOIS

CITY           SKY/WX    TMP DP  RH WIND       PRES   REMARKS
QUINCY         MOSUNNY   72  52  49 N12       30.14S
GALESBURG*     CLOUDY    71  54  54 N7        30.14S
$$

ILZ028>032-037-038-041>044-048-051>054-059>061-290000-
CENTRAL ILLINOIS

CITY           SKY/WX    TMP DP  RH WIND       PRES   REMARKS
DECATUR        MOSUNNY   71  51  49 N14       30.10S
PEORIA         CLOUDY    72  50  45 N6G20     30.12S
SPRINGFIELD    PTSUNNY   71  53  52 N9        30.11S
TAYLORVILLE    NOT AVBL
$$

ILZ033-039-045-046-055>057-062-063-290000-
EAST-CENTRAL ILLINOIS

CITY           SKY/WX    TMP DP  RH WIND       PRES   REMARKS
CHAMPAIGN      PTSUNNY   71  52  50 N14       30.09S
MATTOON        SUNNY     71  53  52 N16       30.08S
$$

ILZ079-100>102-290000-
SOUTHWEST ILLINOIS

CITY           SKY/WX    TMP DP  RH WIND       PRES   REMARKS
ALTON          PTSUNNY   72  57  60 NW12      30.10F
BELLEVILLE     PTSUNNY   75  57  53 N14       30.08S
CAHOKIA*       CLOUDY    75  57  53 N17       30.09S
$$

ILZ064>066-069>071-074>076-080>082-084>086-088>090-092>094-290000-
SOUTH-CENTRAL ILLINOIS

CITY           SKY/WX    TMP DP  RH WIND       PRES   REMARKS
CARBONDALE     PTSUNNY   77  58  51 N12G20    30.05S
MARION         PTSUNNY   79  59  50 N16       30.06S HX  80
MT. VERNON     CLOUDY    73  55  53 N3        30.07F
$$

ILZ067-068-072-073-078-083-087-091-290000-
SOUTHEAST ILLINOIS

CITY           SKY/WX    TMP DP  RH WIND       PRES   REMARKS
LAWRENCEVILLE  SUNNY     74  55  51 NW16      30.05S
$$

ABBREVIATIONS USED IN REMARKS
   TC - TEMPERATURE IN CELSIUS
  WCI - WIND CHILL INDEX
   HX - HEAT INDEX
  VSB - VISIBILITY
$$



USA.gov is the U.S. government's official web portal to all federal, state and local government web resources and services.